San Luis Valley Regional Bergman Field
KALS : now visible

Airfield :











YOU CAN JOIN US ON...

 
LOGIN :

Register | Disclaimer

   EN    FR    IT 

 









Legend :    VFR   Marginal VFR   IFR   Intensive IFR   Very Intensive IFR
Visi :
Ceiling :
>= 8 km
>= 3000ft
5 to 8 km
1000 to 3000 ft
1500m to 5 km
500 to 1000 ft
800 to 1500m
200 to 500 ft
< 800m
< 200 ft
Symbols :   Thunderstorms  Fog  Heavy snow  Heavy precipitations  Wind > 20 kt






- Airport Elevation : 7539 ft


KALS - San Luis Valley Regional Bergman Field

CURRENT METAR :
  • 192052Z AUTO 15004KT 10SM CLR 22/M09 A3011 RMK AO2 SLP132 T02171094 58027

EXPIRED METARs :
  • 191952Z AUTO 12006KT 10SM CLR 21/M09 A3014 RMK AO2 SLP144 T02061089
  • 191852Z AUTO 13006KT 10SM CLR 18/M08 A3018 RMK AO2 SLP158 T01831083

TAF KALS
Valid from the 19 at 18:00 until the 20 at 18:00 UTC


191731Z 1918/2018 27005KT P6SM SCT200
FM192000 26011G21KT P6SM SCT200
FM200000 27008KT P6SM SCT250
FM200400 VRB05KT P6SM FEW250
KZDV FIR / North America



MET'MAP, your aeronautical weather chart ! - Copyright ORBIFLY December 2007 - Disclaimer

ORBIFLY MET'MAP TEAM :

Programming & Development : Alexandra Zaïnal
Concept & original design : Baudouin d'Aumeries
Assistance for programming : Marc-Olivier Méhu
Technical & hardware support : Manuel Goepfert

Contact : metmap@orbifly.com




SOURCES & CREDITS :

   NOAA       Earth
Advisory